Ste-Foy-Tarentaise, France 16 day weather forecast

Slopes altitude range 1550 m - 2620m

Number of lifts: 7 Pistes: 32km

In some cases the lift and piste totals shown are for the ski domain (e.g. Three Valleys) rather than individual resort (e.g. Courchevel)

Overview

The 16 day weather forecast is fully updated 4 times every day.

    • Wed 19 DEC 2018
    • Wed 19
    • -10C -6C
    • Thu 20 DEC 2018
    • Thu 20
    • -17C -7C
    • Fri 21 DEC 2018
    • Fri 21
    • -7C -1C
    • Sat 22 DEC 2018
    • Sat 22
    • -2C -1C
    • Sun 23 DEC 2018
    • Sun 23
    • -5C -1C
    • Mon 24 DEC 2018
    • Mon 24
    • -6C 0C
    • Tue 25 DEC 2018
    • Tue 25
    • -4C 1C
    • Wed 26 DEC 2018
    • Wed 26
    • -3C -2C
    • Thu 27 DEC 2018
    • Thu 27
    • -5C -2C
    • Fri 28 DEC 2018
    • Fri 28
    • -6C -1C
    • Sat 29 DEC 2018
    • Sat 29
    • -4C 2C
    • Sun 30 DEC 2018
    • Sun 30
    • -3C 3C
    • Mon 31 DEC 2018
    • Mon 31
    • -3C 2C
    • Tue 01 JAN 2019
    • Tue 01
    • -2C 3C
    • Wed 02 JAN 2019
    • Wed 02
    • -4C 2C
    • Thu 03 JAN 2019
    • Thu 03
    • -5C 2C

Date:

Time Type 0°C level Temp Chill Snow Cloud Speed Gust Dir Press
3:00 1272m -9°C -9_7 0cm 100% 7mph 8mph 1023mB
6:00 1071m -10°C -10_6 0cm 100% 6mph 7mph 1023mB
9:00 1487m -10°C -10_7 0cm 100% 7mph 7mph 1022mB
12:00 1590m -6°C -6_8 1cm 100% 8mph 8mph 1020mB
15:00 1368m -7°C -7_6 4cm 100% 6mph 7mph 1019mB
18:00 1477m -7°C -7_7 5cm 100% 7mph 10mph 1020mB
21:00 1152m -10°C -10_6 1cm 100% 6mph 7mph 1021mB
0:00 538m -14°C -14_6 1cm 84% 6mph 7mph 1022mB
3:00 313m -15°C -15_6 0cm 3% 6mph 6mph 1023mB
6:00 89m -17°C -17_5 0cm 1% 5mph 6mph 1024mB
9:00 780m -17°C -17_6 0cm 1% 6mph 7mph 1024mB
12:00 1520m -7°C -7_8 0cm 2% 8mph 10mph 1023mB
15:00 998m -7°C -7_7 0cm 3% 7mph 8mph 1024mB
18:00 332m -7°C -7_5 0cm 3% 5mph 6mph 1027mB
21:00 562m -15°C -15_6 0cm 32% 6mph 6mph 1028mB
0:00 688m -15°C -15_5 0cm 66% 5mph 6mph 1028mB
3:00 815m -13°C -13_5 0cm 94% 5mph 6mph 1027mB
6:00 1580m -13°C -13_6 1cm 97% 6mph 7mph 1026mB
9:00 2029m -7°C -7_9 1cm 100% 9mph 10mph 1027mB
12:00 2389m -1°C -1_10 1cm 100% 10mph 12mph 1025mB
15:00 2353m -1°C -1_11 1cm 100% 11mph 13mph 1024mB
18:00 2389m -1°C -1_9 1cm 100% 9mph 11mph 1024mB
21:00 2326m -4°C -4_9 1cm 100% 9mph 11mph 1024mB
0:00 2457m -4°C -4_10 1cm 100% 10mph 11mph 1023mB
3:00 2461m -1°C -1_9 6cm 100% 9mph 11mph 1023mB
6:00 2438m -2°C -2_11 5cm 100% 11mph 14mph 1023mB
9:00 2408m -2°C -2_10 2cm 100% 10mph 11mph 1024mB
12:00 2322m -1°C -1_13 1cm 98% 13mph 18mph 1022mB
15:00 2053m -2°C -2_11 0cm 54% 11mph 14mph 1023mB
18:00 1311m -2°C -2_9 0cm 77% 9mph 10mph 1025mB
21:00 1444m -9°C -9_8 0cm 24% 8mph 9mph 1026mB
0:00 1285m -9°C -9_8 0cm 27% 8mph 8mph 1026mB
3:00 1565m -9°C -9_8 0cm 61% 8mph 9mph 1025mB
6:00 1891m -9°C -9_8 0cm 78% 8mph 8mph 1025mB
9:00 2156m -5°C -5_8 0cm 84% 8mph 9mph 1026mB
12:00 2479m -1°C -1_10 0cm 89% 10mph 11mph 1025mB
15:00 2360m -1°C -1_8 0cm 100% 8mph 10mph 1025mB
18:00 1661m -1°C -1_6 0cm 95% 6mph 7mph 1026mB
21:00 1735m -6°C -6_6 0cm 32% 6mph 6mph 1027mB
0:00 1755m -6°C -6_6 0cm 41% 6mph 7mph 1027mB
3:00 1742m -6°C -6_7 0cm 93% 7mph 7mph 1027mB
6:00 1798m -6°C -6_7 0cm 90% 7mph 7mph 1027mB
9:00 2277m -6°C -6_6 0cm 60% 6mph 7mph 1027mB
12:00 2719m 0°C 0_6 0cm 76% 6mph 7mph 1025mB
15:00 2319m 0°C 0_4 0cm 100% 4mph 4mph 1025mB
18:00 1882m 0°C 0_3 0cm 100% 3mph 3mph 1027mB
21:00 1964m -5°C -5_2 0cm 97% 2mph 3mph 1028mB
0:00 1922m -5°C -5_1 0cm 97% 1mph 2mph 1027mB
3:00 1984m -5°C -5_3 0cm 99% 3mph 4mph 1026mB
6:00 1990m -5°C -5_3 0cm 99% 3mph 4mph 1025mB
9:00 2497m -4°C -4_3 0cm 100% 3mph 4mph 1025mB
12:00 3338m 1°C 1_4 0cm 100% 4mph 4mph 1022mB
15:00 2434m 1°C 1_3 0cm 100% 3mph 3mph 1021mB
18:00 1787m 1°C 1_2 0cm 100% 2mph 3mph 1022mB
21:00 1782m -5°C -5_3 0cm 100% 3mph 4mph 1023mB
0:00 1434m -8°C -8_3 0cm 57% 3mph 4mph 1023mB
3:00 1565m -8°C -8_4 0cm 91% 4mph 5mph 1023mB
6:00 1785m -8°C -8_6 1cm 95% 6mph 7mph 1023mB
9:00 1780m -3°C -3_3 2cm 100% 3mph 3mph 1024mB
12:00 1859m -2°C -2_3 2cm 99% 3mph 3mph 1023mB
15:00 1857m -1°C -1_4 2cm 97% 4mph 5mph 1023mB
18:00 1654m -1°C -1_2 1cm 97% 2mph 2mph 1025mB
21:00 1447m -5°C -5_2 1cm 97% 2mph 2mph 1026mB
0:00 1354m -5°C -5_1 1cm 98% 1mph 1mph 1025mB
3:00 1347m -5°C -5_0 1cm 97% 0mph 1mph 1026mB
6:00 1420m -6°C -6_1 1cm 95% 1mph 2mph 1026mB
9:00 1615m -5°C -5_1 1cm 91% 1mph 2mph 1027mB
12:00 1814m -2°C -2_3 1cm 81% 3mph 4mph 1025mB
15:00 1745m -2°C -2_3 1cm 70% 3mph 4mph 1025mB
18:00 1505m -2°C -2_1 1cm 77% 1mph 2mph 1026mB
21:00 1462m -5°C -5_1 1cm 91% 1mph 1mph 1027mB
0:00 1448m -5°C -5_1 1cm 94% 1mph 2mph 1027mB
3:00 1484m -4°C -4_2 1cm 84% 2mph 3mph 1027mB
6:00 1446m -5°C -5_3 1cm 81% 3mph 4mph 1028mB
9:00 1563m -6°C -6_4 0cm 59% 4mph 6mph 1029mB
12:00 1895m -1°C -1_6 0cm 54% 6mph 8mph 1028mB
15:00 1842m -1°C -1_4 0cm 72% 4mph 6mph 1028mB
18:00 1247m -1°C -1_3 0cm 62% 3mph 4mph 1031mB
Morning 0mm 0 1305m -5°C -5_2 0cm 20% 2mph 4mph 1032mB
Afternoon 0.0208333mm 0 1602m 2°C 2_4 0cm 61% 4mph 6mph 1031mB
Morning 0mm 0 1375m -3°C -3_5 0cm 7% 5mph 6mph 1031mB
Afternoon 0mm 0 2430m 3°C 3_5 0cm 64% 5mph 5mph 1031mB
Morning 0mm 0 1512m -3°C -3_4 0cm 100% 4mph 5mph 1033mB
Afternoon 0mm 0 1578m 2°C 2_5 0cm 62% 5mph 6mph 1036mB
Morning 0mm 0 1533m -2°C -2_4 0cm 5% 4mph 5mph 1036mB
Afternoon 0mm 0 1652m 3°C 3_6 0cm 1% 6mph 7mph 1034mB
Morning 0mm 0 1376m -3°C -3_7 0cm 5% 7mph 8mph 1036mB
Afternoon 0mm 0 1349m 2°C 2_5 0cm 1% 5mph 5mph 1037mB
Morning 0mm 0 1149m -5°C -5_3 0cm 6% 3mph 4mph 1037mB
Afternoon 0mm 0 1266m 2°C 2_3 0cm 40% 3mph 4mph 1037mB

16 day outlook at a glance

Forecast issued: 19/12/2018 03:41:45

Chat

Your comments and questions. In a resort? Let us know what it's like!


Characters left 250

For terms and conditions see Readers Comments on the Cookie and privacy policy page.